Wetbulb
48.94 48.72 48.70 48.34 48.84 49.14 45.78 39.93 32.24 41.15 48.08 35.96 35.38 31.78 33.83 38.09 36.11 38.80 36.66 36.91 35.07 32.82 33.83 32.19 32.05 31.98 34.59 39.00 38.10 33.95 36.17 32.93 28.68 31.56 36.62 37.92 37.00 33.86 32.56 27.10 22.74 25.44 19.29 20.90
47.85 47.82 48.06 48.61 49.20 48.61 43.47 36.20 36.02 41.45 43.16 29.90 31.01 33.97 34.83 36.28 35.60 35.67 35.77 34.52 37.05 37.01 33.05 30.55 32.88 34.13 38.62 39.43 38.54 35.65 38.05 32.27 26.73 25.06 30.82 34.60 33.55 34.29 34.74 33.66 31.40 27.05 20.49 22.90
47.26 47.27 47.59 48.05 48.18 48.84 43.59 35.34 29.33 33.72 37.75 37.48 32.48 31.80 32.43 33.32 37.99 36.68 37.77 36.31 37.12 34.58 32.59 34.63 31.55 32.21 36.99 38.12 38.07 42.34 39.95 32.65 29.43 24.48 26.21 30.38 29.90 32.57 34.93 34.04 28.48 28.00 26.50 28.17
46.83 47.46 47.51 47.88 48.00 48.07 43.23 36.45 31.52 32.82 27.44 31.31 33.24 33.96 32.75 31.21 31.50 37.36 38.25 35.86 35.22 33.12 30.10 30.65 30.30 32.84 34.53 35.48 38.99 38.01 35.60 30.00 31.32 31.92 32.77 33.41 31.40 31.69 32.71 33.03 32.83 28.52 29.33 28.74
46.94 46.88 47.24 47.08 47.03 47.53 41.56 31.73 31.86 34.97 30.29 33.11 33.00 32.35 30.67 30.22 31.81 33.89 33.69 32.66 34.31 34.99 31.96 32.03 28.72 33.10 32.53 32.13 36.29 34.80 34.04 27.00 29.98 27.96 32.08 33.10 30.30 31.55 31.64 32.75 33.79 32.76 31.49 29.96
46.04 46.02 46.50 46.67 46.87 45.68 37.01 37.49 39.06 31.63 29.07 28.53 30.54 30.33 30.36 30.81 33.31 34.26 35.41 34.90 34.59 33.64 34.25 36.56 37.38 37.06 36.21 37.28 34.16 30.58 31.21 29.50 27.76 24.76 29.18 28.01 26.74 29.74 30.13 29.26 29.55 31.35 29.26 31.52
45.27 45.38 45.82 45.71 46.05 44.53 39.65 38.58 37.19 32.20 26.12 28.31 28.79 30.07 31.59 30.72 31.77 30.72 34.66 34.99 32.82 35.60 39.73 39.13 36.73 35.30 35.01 35.50 34.69 35.20 30.93 29.13 29.36 25.73 27.47 20.06 26.48 30.64 32.31 29.53 30.38 31.24 30.77 30.78
44.18 44.62 45.27 45.55 45.72 45.10 37.09 39.66 37.01 33.37 26.42 29.63 31.35 31.34 30.03 30.76 32.60 32.33 32.54 34.74 37.47 39.33 37.33 33.36 30.42 29.33 28.95 32.26 33.72 33.78 33.12 28.86 26.64 23.07 22.62 25.19 26.00 28.89 25.91 25.18 25.20 28.91 29.58 29.57
43.70 44.18 44.28 44.35 44.81 44.84 37.87 36.06 40.73 36.79 27.45 25.84 32.31 30.89 31.94 28.05 27.50 28.16 31.14 35.82 39.47 37.42 34.01 30.57 24.57 21.13 27.61 26.69 29.33 33.98 32.59 31.88 28.56 24.09 16.96 14.17 21.55 29.80 32.79 29.62 20.22 27.98 29.08 27.41
43.22 43.56 43.78 44.24 44.45 44.37 39.92 39.02 39.13 37.02 31.76 31.87 33.67 32.03 31.80 32.42 30.19 25.37 30.64 34.05 35.08 37.11 29.91 25.16 25.04 24.06 29.01 24.77 25.11 26.05 27.91 27.41 24.64 22.81 20.55 21.97 27.45 31.47 32.26 18.08 21.07 29.60 29.56 28.11
42.32 43.12 43.68 43.83 44.06 44.42 41.47 38.60 40.32 36.16 33.13 33.87 35.71 37.00 34.81 35.83 32.79 27.77 33.26 33.51 33.16 31.53 27.83 27.06 26.31 23.21 25.97 25.31 23.89 26.84 25.63 23.89 22.86 24.20 20.48 14.81 30.71 31.04 24.63 24.88 25.86 26.31 25.78 27.23
42.01 42.26 42.85 43.35 43.66 44.04 42.59 33.88 40.20 40.70 35.63 35.24 39.55 38.39 38.13 38.78 37.90 33.04 34.27 30.35 29.72 30.20 28.79 29.41 29.43 28.17 25.23 23.97 19.49 28.61 23.59 22.31 19.35 23.12 20.29 25.30 29.00 28.05 27.67 27.63 24.46 22.24 23.32 24.71
41.70 42.11 41.96 42.76 43.36 43.88 42.40 35.65 38.62 37.79 34.88 34.41 36.01 34.71 38.45 40.35 39.89 40.52 33.94 34.40 34.16 32.14 34.16 29.70 28.30 28.08 28.06 24.76 21.71 25.32 27.20 28.44 20.43 22.78 23.86 25.90 28.19 28.09 27.64 26.88 25.07 23.79 25.23 25.44
42.93 42.10 42.48 42.28 43.13 43.82 43.06 38.25 40.58 39.05 36.86 30.03 29.22 39.43 37.24 41.27 41.75 41.73 40.50 37.66 38.44 36.74 36.86 32.21 31.51 29.64 31.68 25.30 26.04 24.63 27.27 28.24 25.69 23.83 26.64 28.23 28.67 28.44 27.03 25.13 24.70 23.81 23.97 24.07
43.52 43.69 43.64 43.53 43.87 44.26 42.54 41.84 41.99 42.76 36.82 28.72 29.60 35.93 39.62 41.32 41.71 40.68 41.57 39.19 36.86 35.38 31.33 29.91 27.71 30.28 27.86 26.88 26.86 24.40 29.80 27.18 25.52 23.85 28.83 27.36 26.62 27.40 27.50 24.83 23.74 23.39 21.92 21.70
43.50 43.90 44.47 44.66 44.65 44.72 40.06 32.15 39.62 42.42 42.33 31.96 28.45 36.29 36.02 39.23 39.99 40.48 38.51 37.14 33.72 33.22 30.69 28.88 29.89 33.53 29.15 22.99 24.86 29.49 31.80 31.21 30.84 27.03 29.90 28.47 28.63 28.17 27.84 25.32 24.36 24.36 23.37 22.55
43.90 44.20 44.76 44.80 44.91 42.21 35.84 33.69 38.04 43.06 41.50 32.30 28.83 29.66 35.02 38.22 38.70 37.09 35.52 35.91 33.79 30.76 27.74 27.28 28.73 29.72 32.71 29.28 25.82 29.17 28.68 28.97 28.93 29.25 28.71 26.76 27.37 26.43 27.62 25.83 25.15 26.30 23.69 23.63
44.34 44.16 42.97 43.65 44.23 42.76 38.61 38.57 43.35 43.27 37.50 32.90 27.07 27.98 30.05 35.75 31.04 30.67 33.15 30.34 30.09 28.97 26.70 27.84 27.37 28.94 30.16 27.67 28.78 27.38 27.74 28.14 28.31 28.80 28.91 28.40 28.01 27.32 26.37 25.97 24.29 23.15 22.62 22.35
44.36 43.72 44.05 41.67 39.68 36.52 38.45 43.46 43.50 40.33 37.20 27.54 25.40 22.45 20.32 31.25 28.97 29.64 28.96 29.20 25.00 29.40 26.89 26.94 27.79 24.78 23.00 27.08 28.74 27.05 27.67 27.60 27.37 27.66 27.60 27.44 26.33 25.08 25.17 24.53 23.98 22.94 22.51 22.73
44.10 41.17 36.96 32.14 37.81 42.97 42.29 38.51 34.53 34.00 32.90 30.40 23.55 26.40 23.22 28.37 24.39 25.97 26.72 26.95 25.33 23.86 25.84 27.66 24.51 22.26 28.63 29.71 29.52 28.57 28.75 28.36 28.19 25.47 25.11 25.88 25.47 25.00 24.82 24.27 24.48 24.31 23.87 23.41
36.30 31.25 32.13 37.84 42.29 36.59 33.15 25.88 25.83 25.08 25.41 27.68 27.48 28.22 26.90 31.43 25.54 25.48 27.39 25.28 25.06 21.96 24.37 23.05 21.71 21.95 26.10 28.81 28.78 29.22 29.91 28.79 28.17 28.17 28.58 28.33 27.71 25.89 25.18 24.64 25.10 25.03 24.58 22.82
34.56 37.41 38.45 36.73 33.87 28.80 26.13 22.31 25.79 25.02 25.52 27.03 27.08 28.16 29.80 29.52 31.01 27.24 26.85 25.19 24.36 22.17 24.18 21.13 16.08 21.22 26.89 28.21 28.67 28.88 28.26 28.32 27.61 28.19 27.66 27.80 27.81 26.89 26.07 25.83 25.49 25.24 22.90 19.26
37.82 34.82 30.01 28.86 25.25 16.96 16.75 14.50 21.21 20.56 26.57 27.14 27.28 25.36 27.78 28.09 28.56 24.56 24.59 17.94 17.29 25.47 14.56 17.08 19.46 26.19 26.99 27.03 27.34 27.09 27.62 27.85 26.88 26.15 26.59 27.09 26.64 26.81 25.99 24.64 23.34 20.92 19.05 17.93
30.39 27.57 18.91 20.00 15.63 23.18 23.42 24.98 23.87 28.13 25.77 27.83 26.99 24.71 24.83 24.28 22.89 20.71 17.74 20.15 21.51 12.08 10.92 14.50 18.86 26.52 26.63 27.63 28.01 27.16 24.34 23.64 24.27 22.90 22.72 22.30 24.13 23.34 23.68 22.66 21.58 19.07 17.12 16.42
27.53 26.67 19.71 22.99 27.33 28.70 30.16 30.71 30.54 29.43 26.47 26.19 25.27 24.99 24.97 20.64 17.69 20.10 20.11 16.39 9.59 12.96 9.01 17.81 28.20 27.74 27.12 28.97 27.93 20.37 17.71 16.45 17.20 17.64 19.22 19.88 23.20 22.32 20.28 21.34 20.76 19.27 17.27 16.54
28.57 27.80 25.11 24.77 25.29 29.12 30.96 29.67 28.38 28.70 25.78 26.51 26.97 22.69 19.35 19.11 20.39 17.72 12.98 14.41 8.49 11.38 23.33 28.12 30.37 28.83 29.06 28.62 25.65 15.21 17.62 18.58 18.70 16.37 19.42 20.27 21.43 21.59 20.37 20.24 19.48 18.92 18.09 16.15
26.84 22.52 26.37 21.78 23.45 26.57 27.88 29.00 26.56 29.13 27.86 21.19 25.09 19.18 21.01 22.34 17.88 19.06 22.32 17.92 20.33 25.46 28.08 29.35 30.29 29.62 29.97 27.31 22.35 19.14 16.60 19.26 20.51 18.51 20.25 19.84 20.43 19.75 19.30 17.55 18.04 18.80 18.47 17.22
MSLP
1007.51 1008.21 1009.12 1010.00 1010.63 1011.29 1012.38 1013.43 1013.91 1013.17 1013.22 1013.63 1013.83 1013.30 1012.00 1011.96 1011.15 1011.39 1011.27 1011.06 1010.96 1010.89 1010.88 1010.77 1010.69 1010.50 1010.18 1010.01 1010.25 1011.15 1011.38 1011.91 1012.38 1012.45 1012.60 1012.74 1013.30 1013.85 1014.28 1015.22 1015.98 1016.32 1016.27 1015.25
1007.01 1007.81 1008.45 1009.26 1009.90 1010.69 1011.81 1012.68 1013.23 1013.30 1013.19 1012.90 1012.88 1012.75 1012.23 1011.97 1011.54 1011.56 1011.48 1011.18 1011.04 1010.92 1011.12 1011.27 1010.79 1010.46 1010.09 1010.24 1010.64 1010.98 1011.65 1012.60 1012.98 1012.95 1013.42 1013.46 1013.18 1013.01 1013.17 1013.85 1014.69 1014.61 1015.48 1014.74
1006.47 1007.28 1007.65 1008.55 1009.35 1010.17 1011.32 1012.35 1012.88 1013.49 1012.89 1012.60 1012.57 1012.55 1012.29 1011.75 1011.47 1011.70 1011.57 1011.29 1011.15 1011.43 1011.44 1011.38 1010.96 1010.73 1010.72 1010.81 1010.90 1011.12 1011.76 1012.32 1012.50 1012.60 1012.70 1012.92 1013.28 1012.95 1012.91 1013.49 1013.89 1013.41 1013.35 1014.13
1005.97 1006.42 1007.01 1007.79 1008.75 1009.68 1010.69 1011.48 1011.45 1011.39 1012.05 1012.24 1012.36 1012.22 1011.78 1011.50 1011.20 1011.16 1011.57 1011.61 1011.31 1011.67 1011.73 1011.48 1011.28 1011.18 1011.37 1011.36 1011.40 1011.84 1012.09 1012.65 1012.92 1012.47 1012.46 1012.69 1012.85 1012.75 1012.54 1012.77 1012.71 1013.14 1013.08 1013.30
1005.63 1006.10 1006.50 1007.29 1008.23 1009.21 1009.85 1010.68 1010.99 1011.41 1011.64 1011.72 1012.07 1012.19 1011.72 1011.41 1011.20 1011.24 1011.30 1011.27 1011.26 1011.47 1011.70 1011.56 1011.41 1011.43 1011.55 1011.66 1011.90 1012.35 1012.55 1012.78 1013.01 1012.81 1012.54 1012.79 1012.83 1012.24 1012.17 1012.35 1012.36 1012.49 1012.95 1013.43
1005.30 1005.75 1006.38 1007.24 1007.74 1009.03 1009.54 1010.30 1010.29 1010.59 1011.28 1011.67 1011.84 1011.38 1010.90 1010.73 1011.43 1011.14 1010.99 1011.36 1011.57 1011.48 1011.14 1011.34 1011.46 1011.78 1011.74 1011.75 1012.10 1012.30 1012.89 1013.14 1013.32 1012.82 1012.66 1012.92 1012.77 1011.19 1011.38 1011.53 1011.83 1011.90 1012.54 1013.07
1004.92 1005.47 1006.04 1006.96 1007.63 1008.50 1009.81 1010.17 1010.59 1010.66 1011.16 1011.34 1011.04 1010.88 1011.05 1010.94 1011.18 1011.05 1010.91 1011.01 1011.15 1011.04 1011.00 1011.40 1011.66 1011.90 1011.88 1011.58 1011.14 1011.39 1012.29 1013.03 1013.07 1012.97 1013.08 1012.66 1011.39 1011.07 1010.81 1011.07 1011.45 1012.03 1012.69 1013.60
1004.83 1005.37 1006.12 1006.53 1007.24 1008.38 1009.70 1009.93 1010.41 1010.36 1010.97 1010.86 1011.03 1011.02 1010.78 1010.92 1011.45 1010.92 1011.06 1010.92 1010.85 1010.99 1011.36 1011.96 1012.10 1012.12 1011.92 1010.80 1010.87 1011.17 1011.02 1012.42 1013.04 1013.26 1013.01 1012.07 1011.58 1011.30 1011.32 1011.48 1012.00 1012.66 1013.74 1015.27
1004.75 1005.34 1005.85 1006.38 1007.20 1008.10 1009.22 1009.95 1010.13 1010.52 1010.72 1010.39 1010.27 1010.55 1010.71 1011.16 1011.23 1011.16 1010.57 1010.60 1010.61 1011.24 1011.95 1011.88 1011.66 1011.32 1010.76 1010.88 1010.92 1011.25 1011.32 1011.57 1012.80 1013.50 1013.32 1012.67 1011.76 1011.30 1011.40 1011.76 1012.58 1013.09 1014.09 1015.69
1004.75 1005.14 1005.61 1006.34 1007.01 1007.82 1008.78 1009.35 1009.76 1010.36 1010.45 1010.09 1009.92 1009.98 1010.07 1010.63 1010.83 1010.71 1010.50 1010.55 1010.83 1011.07 1011.53 1011.85 1011.44 1010.68 1010.12 1010.39 1010.66 1010.99 1011.68 1012.29 1012.54 1013.08 1013.29 1012.50 1011.69 1011.75 1012.16 1013.28 1013.68 1013.67 1014.55 1015.97
1004.42 1004.85 1005.43 1006.13 1006.74 1007.40 1008.50 1009.15 1009.35 1009.84 1010.30 1009.99 1009.57 1009.40 1009.49 1009.62 1010.19 1010.27 1010.49 1010.70 1010.46 1011.04 1011.12 1011.20 1010.78 1010.23 1009.74 1010.10 1010.32 1010.51 1011.03 1012.01 1012.53 1013.26 1013.61 1013.29 1011.98 1012.67 1013.28 1013.61 1014.28 1014.84 1015.83 1016.84
1003.98 1004.51 1005.15 1005.83 1006.50 1007.12 1008.10 1008.92 1009.01 1009.60 1010.18 1009.97 1009.48 1009.14 1008.92 1008.99 1009.21 1009.42 1009.71 1009.60 1009.65 1009.58 1010.09 1010.44 1010.26 1009.91 1009.93 1009.69 1010.49 1010.40 1011.02 1010.59 1011.72 1012.51 1012.57 1012.70 1012.79 1013.09 1013.51 1014.03 1014.81 1015.91 1016.57 1017.51
1002.95 1003.82 1004.68 1005.36 1006.07 1006.73 1007.48 1008.18 1008.65 1009.48 1009.89 1009.76 1009.47 1008.88 1008.58 1008.60 1008.68 1008.83 1009.09 1008.91 1008.79 1009.03 1009.01 1009.65 1009.57 1009.57 1009.90 1009.64 1009.97 1010.21 1010.44 1010.71 1011.51 1012.29 1012.76 1013.10 1013.43 1013.84 1014.32 1014.70 1015.45 1016.33 1016.91 1017.78
1002.09 1003.01 1004.00 1004.88 1005.58 1006.26 1007.08 1007.72 1008.04 1008.96 1008.91 1009.13 1007.94 1007.65 1007.89 1007.53 1007.78 1007.93 1008.25 1008.02 1008.06 1008.41 1008.58 1009.37 1009.29 1009.36 1009.34 1009.36 1009.40 1009.88 1010.10 1010.66 1011.36 1012.36 1012.99 1013.47 1013.86 1014.27 1014.90 1015.59 1016.30 1017.05 1017.77 1018.41
1001.54 1002.26 1003.27 1004.20 1005.05 1005.86 1006.85 1007.49 1007.71 1007.99 1008.47 1008.24 1007.83 1007.46 1006.84 1006.81 1006.84 1007.16 1007.40 1007.98 1008.18 1008.53 1009.15 1009.20 1008.91 1008.63 1008.93 1009.46 1009.53 1009.78 1009.78 1010.26 1010.89 1010.90 1011.11 1011.99 1012.80 1014.12 1015.03 1015.83 1016.78 1017.54 1018.18 1019.30
1001.53 1001.91 1002.71 1003.63 1004.52 1005.68 1006.90 1007.55 1007.77 1007.56 1007.81 1008.01 1007.72 1007.11 1006.49 1006.10 1006.06 1006.45 1007.16 1007.31 1007.59 1008.40 1008.34 1008.31 1008.18 1007.81 1008.34 1009.43 1009.96 1009.76 1009.84 1010.01 1010.24 1010.73 1011.43 1012.17 1013.08 1014.28 1015.20 1016.02 1017.06 1017.95 1018.67 1019.53
1001.51 1001.91 1002.66 1003.58 1004.33 1005.51 1006.23 1005.97 1005.86 1006.56 1007.45 1007.65 1007.57 1007.07 1006.69 1006.06 1006.19 1006.70 1006.86 1006.88 1007.24 1007.42 1007.94 1008.26 1008.21 1008.08 1008.08 1009.41 1010.22 1010.23 1010.56 1010.76 1011.01 1011.46 1012.00 1013.52 1014.01 1014.64 1015.59 1016.35 1017.40 1018.24 1019.19 1020.14
1001.60 1002.34 1003.14 1003.83 1004.50 1005.47 1005.59 1005.50 1005.69 1006.24 1006.95 1007.38 1007.41 1007.09 1006.78 1006.43 1006.89 1007.22 1007.03 1007.06 1007.21 1007.75 1008.17 1008.39 1008.55 1008.75 1008.87 1009.84 1010.29 1010.90 1011.22 1011.55 1011.97 1012.05 1012.05 1012.61 1013.80 1014.99 1015.96 1016.70 1017.80 1018.67 1019.60 1020.48
1001.96 1002.79 1003.42 1004.36 1004.49 1005.08 1005.52 1005.59 1005.99 1006.32 1006.96 1006.85 1007.04 1007.18 1006.93 1006.21 1006.59 1006.66 1006.91 1006.97 1007.82 1008.12 1008.47 1008.80 1008.97 1009.41 1009.64 1009.90 1010.34 1011.10 1011.52 1011.78 1012.33 1012.71 1013.01 1013.55 1014.21 1015.22 1016.09 1017.00 1018.00 1018.73 1019.77 1020.65
1002.47 1003.29 1003.84 1004.45 1004.87 1005.06 1005.30 1005.95 1006.39 1006.66 1006.66 1006.97 1007.15 1007.28 1007.17 1006.89 1006.99 1007.42 1007.68 1007.74 1008.61 1008.83 1009.32 1009.11 1009.44 1009.95 1010.11 1009.95 1010.40 1011.18 1011.82 1012.10 1012.54 1013.22 1014.05 1014.36 1014.83 1015.43 1016.31 1017.11 1017.98 1018.77 1019.67 1020.73
1002.96 1003.61 1004.22 1004.72 1004.84 1005.26 1005.59 1006.09 1006.43 1006.72 1006.96 1006.92 1006.99 1006.95 1006.99 1006.97 1007.32 1007.89 1008.33 1008.59 1009.08 1009.49 1009.87 1009.74 1010.48 1010.60 1010.57 1010.75 1011.13 1011.60 1012.04 1012.42 1012.73 1012.87 1013.19 1013.99 1014.66 1015.48 1016.41 1017.41 1018.22 1019.08 1020.01 1020.96
1002.75 1003.19 1004.39 1004.81 1005.07 1005.33 1005.67 1006.43 1006.54 1006.57 1006.71 1006.89 1006.92 1007.01 1007.07 1007.37 1007.24 1007.96 1008.79 1009.26 1009.73 1010.34 1010.40 1010.53 1011.06 1010.91 1010.96 1011.23 1011.67 1012.13 1012.47 1012.86 1013.21 1013.43 1013.84 1014.43 1015.11 1015.85 1016.72 1017.68 1018.60 1019.55 1020.52 1021.59
1003.02 1003.31 1004.43 1005.04 1006.02 1006.32 1006.46 1006.84 1006.86 1006.91 1006.85 1006.90 1006.98 1007.53 1007.62 1007.76 1007.97 1009.09 1009.51 1010.36 1010.89 1010.83 1011.23 1011.39 1011.21 1011.11 1011.35 1011.75 1012.17 1012.75 1013.11 1013.49 1013.99 1014.47 1014.72 1015.23 1015.87 1016.53 1017.14 1018.23 1019.24 1020.16 1021.21 1022.20
1003.91 1004.73 1006.02 1006.53 1006.91 1006.93 1006.78 1006.83 1006.80 1006.98 1006.95 1007.09 1007.37 1008.18 1008.61 1009.03 1009.35 1010.32 1010.80 1011.51 1011.51 1012.10 1012.34 1011.88 1011.35 1011.35 1011.67 1012.12 1012.65 1013.23 1013.86 1014.32 1014.88 1015.35 1015.60 1016.11 1016.68 1017.48 1018.13 1018.83 1019.73 1020.64 1021.84 1022.86
1005.17 1005.79 1007.08 1007.45 1007.38 1007.18 1007.04 1007.04 1007.07 1007.22 1007.21 1007.20 1007.97 1008.74 1009.01 1009.78 1010.51 1011.04 1011.50 1012.11 1012.42 1012.42 1012.29 1011.75 1011.32 1011.51 1011.93 1012.46 1013.11 1013.91 1014.65 1015.25 1015.77 1015.98 1016.50 1016.93 1017.39 1018.08 1018.90 1019.54 1020.24 1021.09 1022.16 1023.15
1006.20 1007.15 1007.86 1007.97 1007.77 1007.48 1007.36 1007.52 1007.60 1007.47 1007.47 1007.52 1007.97 1009.08 1009.77 1010.35 1010.65 1011.18 1011.60 1012.10 1012.32 1012.10 1011.87 1011.68 1011.63 1011.88 1012.28 1012.83 1013.55 1014.52 1015.27 1015.72 1016.18 1016.47 1016.77 1017.28 1017.84 1018.47 1019.25 1020.05 1020.74 1021.43 1022.16 1023.18
1007.66 1008.61 1008.57 1008.71 1008.47 1008.33 1008.16 1008.03 1007.88 1007.53 1007.70 1008.52 1008.84 1009.62 1010.20 1010.47 1010.77 1011.28 1011.41 1011.79 1012.05 1011.95 1011.97 1011.96 1011.97 1012.23 1012.72 1013.36 1014.26 1015.14 1015.69 1016.15 1016.61 1017.04 1017.41 1017.84 1018.37 1018.98 1019.68 1020.46 1021.22 1021.80 1022.53 1023.26
Wind_Speed
19 18 18 18 18 21 13 5 5 2 6 9 6 14 18 11 6 5 7 2 5 4 3 1 1 4 4 2 5 8 6 5 10 13 3 5 3 5 7 4 5 4 3 7
18 18 17 17 19 24 6 4 3 1 2 9 7 10 20 22 14 7 4 8 6 3 3 3 6 6 3 6 7 8 6 1 1 5 4 2 7 7 10 4 2 15 5 5
22 21 18 17 20 26 7 4 5 2 3 1 10 12 9 11 7 16 4 3 5 5 8 4 5 2 2 1 3 1 6 5 7 9 4 4 4 7 11 12 6 4 12 7
23 21 18 17 18 26 7 5 4 4 6 10 11 11 6 15 11 9 10 6 8 6 5 5 8 5 1 1 3 3 5 8 6 6 5 5 5 7 8 16 17 10 6 10
20 18 17 17 18 21 8 5 5 2 3 11 12 14 11 9 10 5 6 12 6 12 12 10 3 7 5 6 3 4 2 3 4 4 7 11 10 11 9 13 10 8 7 6
21 19 17 16 17 14 2 2 2 5 6 5 9 13 15 13 7 5 10 9 7 10 13 7 6 4 5 7 7 7 6 5 4 6 4 2 9 18 13 6 4 5 14 7
18 17 17 18 16 18 3 2 1 3 4 6 9 5 13 17 12 14 4 13 13 5 7 5 4 2 4 8 11 8 7 5 3 2 4 11 1 4 5 8 4 4 3 14
15 16 16 17 18 21 3 2 3 2 2 4 5 5 3 5 10 18 11 13 4 5 3 3 4 3 3 4 7 11 8 6 3 3 5 4 3 5 6 8 6 5 12 12
14 15 15 16 17 20 4 3 3 1 4 6 5 8 9 7 4 2 6 3 5 5 3 3 7 6 2 5 6 8 5 4 5 3 4 6 6 1 3 2 6 10 12 17
14 15 15 17 17 18 6 3 5 3 2 3 5 5 7 6 5 3 2 5 5 5 5 3 5 8 4 8 8 7 4 3 8 4 4 6 4 5 4 6 7 11 15 16
17 16 17 17 18 18 9 3 7 6 2 5 4 4 5 5 4 5 4 3 3 3 8 5 4 4 5 3 4 6 8 8 5 3 3 8 4 3 6 4 3 7 8 14
22 20 19 18 18 19 15 3 4 5 2 2 2 4 4 4 2 4 5 3 4 5 3 4 4 2 1 5 4 3 5 7 7 8 7 1 2 1 1 3 5 4 7 8
28 24 24 21 19 19 17 4 5 4 3 4 5 8 8 7 9 5 3 3 4 3 4 3 2 3 3 4 4 3 1 2 4 4 2 3 3 3 2 3 4 5 7 14
27 27 25 24 21 22 20 6 4 6 2 3 5 3 4 7 11 10 13 3 2 2 3 2 2 2 2 3 4 4 4 7 6 1 2 4 4 3 5 9 11 11 9 11
16 24 26 25 25 23 12 3 4 3 2 2 3 3 4 6 10 12 13 4 4 2 2 3 4 3 4 1 2 1 4 6 5 6 9 4 4 11 13 13 11 12 15 12
12 18 23 24 21 22 6 2 3 11 3 1 2 2 3 6 9 10 12 11 4 4 5 2 1 2 4 3 2 1 1 1 1 2 8 4 13 13 10 14 12 12 13 12
14 17 20 22 24 9 5 4 2 16 3 2 1 1 2 2 4 2 2 1 2 2 2 2 3 1 3 3 2 2 3 5 9 13 15 10 9 8 11 14 12 14 13 12
18 21 15 15 17 7 0 3 10 11 2 2 2 1 0 4 3 3 3 2 2 4 3 1 3 1 2 2 2 4 5 9 8 3 2 9 12 13 13 14 14 14 13 13
21 18 21 9 1 2 2 8 11 2 2 2 2 3 3 3 1 1 3 2 4 1 2 1 2 1 1 2 7 8 8 4 6 7 11 14 15 14 15 15 14 15 14 13
25 6 2 3 2 9 11 4 2 0 2 1 2 0 0 4 2 2 2 3 1 2 2 1 3 1 1 3 6 6 7 9 12 14 8 10 12 14 15 12 12 12 12 13
2 3 3 3 9 2 2 3 3 1 0 1 2 3 3 3 4 2 2 2 1 2 3 3 1 2 1 3 6 6 5 7 4 2 5 10 12 13 13 12 11 12 13 13
4 7 4 2 2 2 5 1 1 1 3 1 4 2 3 1 2 4 3 3 2 1 2 4 1 3 2 5 6 6 6 7 5 5 9 9 11 12 12 11 11 12 11 13
1 3 4 3 3 7 4 3 1 1 2 2 2 3 1 2 4 4 3 5 1 0 4 2 3 0 3 5 5 5 6 7 7 7 7 10 10 9 12 11 9 11 11 10
4 3 4 3 3 2 1 1 1 1 1 4 3 3 3 1 5 1 5 2 2 4 2 4 3 4 5 5 5 6 6 7 7 7 8 10 11 10 10 11 11 12 10 9
4 4 4 3 1 1 0 0 1 2 1 2 4 4 3 3 4 2 3 4 1 4 5 3 1 4 5 5 5 6 6 5 6 6 7 8 11 10 8 9 10 11 11 11
4 5 2 2 1 2 2 3 1 2 1 2 4 3 4 2 4 3 2 5 5 4 1 1 2 3 4 4 5 5 5 6 6 4 7 8 9 10 10 9 9 10 12 12
4 3 1 1 0 1 1 2 2 2 3 2 2 4 1 2 3 2 2 2 2 1 1 1 2 4 6 7 6 6 5 6 7 5 6 6 8 10 10 10 7 9 9 10
Wind_Direction
194 191 191 196 202 170 142 143 213 174 170 191 187 212 214 255 236 243 253 329 233 221 218 298 245 223 249 114 142 169 194 176 229 216 144 166 179 213 172 184 217 224 167 267
194 200 191 199 198 168 145 179 188 22 205 202 202 223 233 236 260 244 245 220 207 199 222 242 201 211 264 173 156 168 176 219 271 330 354 356 212 207 216 198 121 220 159 247
191 196 183 190 191 170 151 136 178 229 203 191 215 209 223 223 215 233 281 266 231 221 241 222 267 226 265 269 223 56 151 181 184 234 184 139 200 223 223 213 233 208 215 153
193 187 178 183 188 182 163 181 194 188 160 202 210 206 246 220 229 199 211 237 243 220 230 206 230 210 200 219 273 157 157 234 206 232 198 180 218 231 217 219 232 218 197 207
193 186 180 181 185 186 206 169 159 151 124 189 186 204 202 215 227 230 217 226 190 219 232 227 263 219 178 206 171 174 202 227 162 264 220 224 241 233 219 233 236 245 246 211
191 187 184 189 182 166 110 174 249 115 178 153 190 214 220 223 175 246 234 241 228 241 249 234 268 231 254 241 210 190 170 159 159 247 184 209 255 245 221 193 220 231 220 198
189 190 187 194 189 176 132 137 100 121 163 179 204 181 209 231 215 227 222 220 223 231 97 82 53 357 300 247 217 179 158 171 181 223 132 232 258 313 260 225 166 172 95 153
193 197 197 189 189 182 117 159 140 142 149 177 183 213 210 223 233 242 245 243 180 124 95 170 225 220 255 227 209 207 149 150 184 197 214 316 244 221 166 173 245 162 139 127
200 202 197 193 189 182 126 156 113 165 132 226 185 200 218 212 208 294 234 231 136 110 160 209 227 213 172 200 158 193 124 141 175 153 183 222 243 107 114 74 281 173 148 150
212 210 201 199 197 192 156 185 160 124 269 239 145 186 189 171 184 194 198 162 159 138 171 204 236 215 178 171 174 167 154 169 198 162 214 283 220 153 132 113 246 151 156 154
217 212 209 208 204 200 173 194 188 170 215 275 218 208 177 172 193 183 176 169 166 139 194 199 179 244 198 142 179 172 174 160 184 154 179 271 151 91 182 200 29 121 138 156
225 213 210 211 207 203 177 196 173 176 193 282 305 274 265 198 225 153 194 192 178 183 158 210 168 182 227 153 196 152 208 170 177 177 204 254 355 104 137 135 129 150 126 149
208 206 215 213 209 203 184 167 151 134 223 258 235 219 225 213 216 208 190 219 197 189 186 168 158 185 188 164 228 113 220 161 128 97 198 164 129 79 69 110 109 122 131 140
202 206 205 207 207 202 191 188 174 178 187 243 262 130 205 202 208 214 213 309 111 112 113 183 176 197 234 198 173 142 194 138 137 105 134 112 188 170 137 103 110 111 106 129
191 192 194 197 199 196 183 175 180 209 222 207 249 247 211 248 208 209 195 186 198 66 106 204 206 165 121 330 73 166 190 164 171 213 183 155 171 151 142 132 133 131 129 124
197 181 180 182 180 180 141 137 246 195 238 174 253 335 312 275 196 180 165 221 153 162 195 174 220 246 113 105 224 234 37 161 143 191 116 91 131 134 140 132 135 133 129 127
187 160 158 161 161 143 170 199 172 170 130 182 255 299 253 323 119 86 271 52 166 166 119 89 140 40 70 90 243 125 58 78 95 107 107 97 142 151 140 128 133 126 119 124
160 142 137 164 169 122 327 331 149 147 147 181 167 210 299 166 152 162 224 141 59 13 138 48 93 33 71 223 125 105 99 110 114 2 86 136 125 127 133 123 127 127 130 129
150 136 129 128 105 109 149 142 134 98 162 192 95 129 226 1 21 65 38 57 56 281 84 76 88 316 180 227 156 162 157 160 137 92 109 126 132 135 133 136 142 141 145 141
120 105 126 114 149 126 137 42 109 239 241 99 145 202 184 82 355 15 62 19 92 74 294 25 66 236 326 355 128 139 157 126 127 113 131 144 145 147 148 153 148 147 147 143
81 96 68 63 147 146 183 124 140 193 130 178 186 183 130 340 99 146 24 144 358 90 266 109 347 302 202 114 120 134 145 147 151 101 143 159 151 148 147 148 146 145 146 146
165 109 107 84 23 43 86 3 349 171 178 175 127 153 132 42 80 90 354 97 47 133 304 75 296 256 131 136 139 150 145 143 123 119 122 125 136 143 142 144 145 143 129 129
86 65 80 74 335 48 113 178 281 53 181 189 132 49 62 49 41 60 69 67 196 127 42 221 227 178 148 145 124 111 119 113 112 105 102 112 116 123 132 124 120 125 127 135
61 68 42 75 2 63 182 335 192 300 141 111 96 63 73 346 54 344 81 257 59 49 33 243 252 175 162 141 130 126 143 129 126 120 118 119 119 113 117 124 131 128 129 132
71 55 50 39 330 286 3 60 9 351 139 99 70 56 78 17 78 27 99 45 321 196 223 234 207 151 137 141 125 128 128 125 125 125 119 119 126 124 117 128 130 126 127 132
59 50 59 326 31 31 44 60 38 342 92 72 56 98 60 33 124 78 190 127 215 250 226 226 92 102 107 113 104 109 113 118 121 115 128 126 132 134 128 122 129 136 139 140
42 23 81 151 124 24 25 356 304 305 66 85 97 68 152 98 64 76 155 184 224 146 109 56 68 129 129 113 111 108 114 124 122 107 111 106 110 119 124 129 131 133 136 136